Location: *
(43.9900°N, 3.4811°E)
Time: 00:43:49
(UTC+00:00)

Cosmos 2098 Rocket - Pass Details

Date: 25 August 2019
Orbit: 367 x 1191 km, 82.9° (Epoch: 17 October)

Event Time Altitude Azimuth Distance (km) Brightness Sun altitude
Rises 20:10:07 0° 354° (N) 3,017 7.2 -16.4°
Reaches altitude 10° 20:12:11 10° 356° (N) 2,213 6.4 -16.7°
Maximum altitude 20:17:13 75° 82° (E) 882 3.6 -17.5°
Enters shadow 20:21:34 20° 165° (SSE) 2,033 5.2 -18.1°
